Phnom Penh, Cambodia

1:08 AM +07 on June 29, 2017 (GMT +0700)
Pochentong International

Weather History for VDPP - October, 2013

Change the Weather History Date:

Friday, October 18, 2013

  Actual Average Record
Temperature  
Mean Temperature 82 °F -  
Max Temperature 89 °F 84 °F 93 °F (2011)
Min Temperature 74 °F 75 °F 73 °F (2006)
Cooling Degree Days 16    
Growing Degree Days 32 (Base 50)    
Moisture  
Dew Point 75 °F    
Average Humidity 76    
Maximum Humidity 92    
Minimum Humidity 59    
Precipitation  
Precipitation 0.31 in - - ()
Sea Level Pressure  
Sea Level Pressure 29.83 in    
Wind  
Wind Speed 4 mph ()    
Max Wind Speed 20 mph    
Max Gust Speed -    
Visibility 5.8 miles    
Events Rain , Thunderstorm    
Averages and records for this station are not official NWS values.
T = Trace of Precipitation, MM = Missing Value Source: Averaged Metar Reports

Daily Weather History Graph

Daily Weather History Graph

Search for Another Location

Airport or City:

Trip Planner

Search our weather history database for the weather conditions in past years. The results will help you decide how hot, cold, wet, or windy it might be!

Date:

Astronomy

Oct. 18, 2013 Rise Set
Actual Time 5:50 AM +07 5:41 PM +07
Civil Twilight 5:28 AM +07 6:02 PM +07
Nautical Twilight 5:04 AM +07 6:27 PM +07
Astronomical Twilight 4:39 AM +07 6:51 PM +07
Moon 5:10 PM +07 (10/18) 4:57 AM +07 (10/18)
Length of Visible Light 12h 33m
Length of Day
11h 50m
Waxing Gibbous, 99% of the Moon is Illuminated
Oct 18
Waxing Gibbous
Oct 19
Full
Oct 27
Last Quarter
Nov 3
New
Nov 10
First Quarter

Hourly Weather History & Observations

Time (+07) Temp. Heat Index Dew Point Humidity Pressure Visibility Wind Dir Wind Speed Gust Speed Precip Events Conditions
12:00 AM 78.8 °F - 75.2 °F 89% 29.86 in 5.6 mi SW 3.5 mph - N/A   Mostly Cloudy
12:30 AM 78.8 °F - 75.2 °F 89% 29.83 in - WSW 4.6 mph - N/A Thunderstorm Thunderstorm
1:00 AM 78.8 °F - 75.2 °F 89% 29.83 in - West 4.6 mph - N/A Thunderstorm Thunderstorm
6:00 AM 78.8 °F - 75.2 °F 89% 29.83 in 6.2 mi SSW 2.3 mph - N/A   Scattered Clouds
6:30 AM 78.8 °F - 75.2 °F 89% 29.83 in 6.2 mi South 2.3 mph - N/A   Scattered Clouds
7:00 AM 79 °F - 77 °F 92% 29.86 in 6 mi Calm Calm - -   Partly Cloudy
7:00 AM 80.6 °F 86.2 °F 75.2 °F 84% 29.86 in 6.2 mi ENE 2.3 mph - N/A   Scattered Clouds
7:30 AM 80.6 °F 87.1 °F 77.0 °F 89% 29.86 in 6.2 mi East 2.3 mph - N/A   Scattered Clouds
8:00 AM 80.6 °F 86.2 °F 75.2 °F 84% 29.86 in 5.6 mi East 4.6 mph - N/A   Overcast
8:30 AM 82.4 °F 89.5 °F 75.2 °F 79% 29.89 in 5.6 mi NE 5.8 mph - N/A   Overcast
9:00 AM 84.2 °F 92.3 °F 75.2 °F 74% 29.89 in 5.6 mi East 3.5 mph - N/A   Overcast
9:30 AM 84.2 °F 92.3 °F 75.2 °F 74% 29.89 in 5.6 mi NE 5.8 mph - N/A   Overcast
10:00 AM 84.2 °F 92.3 °F 75.2 °F 74% 29.89 in 6.2 mi NNW 4.6 mph - N/A   Overcast
10:30 AM 84.2 °F 92.3 °F 75.2 °F 74% 29.89 in 6.2 mi NE 4.6 mph - N/A   Overcast
11:00 AM 86.0 °F 95.1 °F 75.2 °F 70% 29.86 in 6.2 mi NE 5.8 mph - N/A   Mostly Cloudy
11:30 AM 86.0 °F 95.1 °F 75.2 °F 70% 29.86 in 6.2 mi NNE 4.6 mph - N/A   Mostly Cloudy
12:00 PM 86.0 °F 93.4 °F 73.4 °F 66% 29.83 in 6.2 mi North 3.5 mph - N/A   Scattered Clouds
12:30 PM 87.8 °F 97.6 °F 75.2 °F 66% 29.83 in 6.2 mi SW 5.8 mph - N/A   Scattered Clouds
1:00 PM 87.8 °F 97.6 °F 75.2 °F 66% 29.80 in 6.2 mi WSW 4.6 mph - N/A   Partly Cloudy
1:30 PM 87.8 °F 97.6 °F 75.2 °F 66% 29.80 in 6.2 mi SSE 4.6 mph - N/A   Partly Cloudy
2:00 PM 86.0 °F 95.1 °F 75.2 °F 70% 29.77 in 6.2 mi SW 9.2 mph - N/A   Partly Cloudy
2:30 PM 86.0 °F 93.4 °F 73.4 °F 66% 29.77 in 6.2 mi SW 3.5 mph - N/A   Partly Cloudy
3:00 PM 87.8 °F 95.6 °F 73.4 °F 62% 29.74 in 6.2 mi SW 4.6 mph - N/A   Partly Cloudy
3:30 PM 87.8 °F 97.6 °F 75.2 °F 66% 29.74 in 6.2 mi SW 4.6 mph - N/A   Partly Cloudy
4:00 PM 89.6 °F 98.2 °F 73.4 °F 59% 29.74 in 6.2 mi Calm Calm - N/A   Partly Cloudy
4:30 PM 87.8 °F 95.6 °F 73.4 °F 62% 29.74 in 6.2 mi South 4.6 mph - N/A   Partly Cloudy
5:00 PM 87.8 °F 97.6 °F 75.2 °F 66% 29.77 in 6.2 mi South 3.5 mph - N/A   Partly Cloudy
5:30 PM 87.8 °F 97.6 °F 75.2 °F 66% 29.77 in 6.2 mi West 2.3 mph - N/A   Partly Cloudy
6:00 PM 87.8 °F 97.6 °F 75.2 °F 66% 29.80 in 5.6 mi West 4.6 mph - N/A   Scattered Clouds
6:30 PM 86.0 °F 95.1 °F 75.2 °F 70% 29.80 in 5.6 mi West 5.8 mph - N/A   Scattered Clouds
7:00 PM 86.0 °F 95.1 °F 75.2 °F 70% 29.80 in 5.6 mi West 8.1 mph - N/A   Scattered Clouds
7:30 PM 84.2 °F 92.3 °F 75.2 °F 74% 29.83 in 5.6 mi WNW 3.5 mph - N/A   Scattered Clouds
8:00 PM 84.2 °F 90.9 °F 73.4 °F 70% 29.83 in 5.6 mi NW 2.3 mph - N/A   Scattered Clouds
8:30 PM 82.4 °F 89.5 °F 75.2 °F 79% 29.86 in 5.6 mi West 5.8 mph - N/A   Mostly Cloudy
9:00 PM 82.4 °F 89.5 °F 75.2 °F 79% 29.86 in 5.6 mi West 4.6 mph - N/A   Mostly Cloudy
9:30 PM 82.4 °F 89.5 °F 75.2 °F 79% 29.89 in 5.6 mi NE 15.0 mph - N/A   Mostly Cloudy
9:40 PM 78.8 °F - 73.4 °F 83% 29.89 in 3.7 mi NE 19.6 mph - N/A Rain , Thunderstorm Thunderstorms and Rain
10:00 PM 77.0 °F - 73.4 °F 89% 29.89 in 3.1 mi North 6.9 mph - N/A Rain , Thunderstorm Thunderstorms and Rain
10:30 PM 77.0 °F - 73.4 °F 89% 29.89 in 5.0 mi Variable 5.8 mph - N/A Thunderstorm Thunderstorm
11:00 PM 77.0 °F - 73.4 °F 89% 29.86 in 5.0 mi Variable 6.9 mph - N/A Thunderstorm Thunderstorm
11:30 PM 78.8 °F - 73.4 °F 83% 29.86 in 5.0 mi West 8.1 mph - N/A Thunderstorm Thunderstorm